Time,TemperatureF,DewpointF,PressureIn,WindDirection,WindDirectionDegrees,WindSpeedMPH,WindSpeedGustMPH,Humidity,HourlyPrecipIn,Conditions,Clouds,dailyrainin,SoftwareType,DateUTC
2013-04-19 00:00:00,65.9,57.4,29.73,South,173,12.0,22.0,74,0.00,,,0.01,Wunderground v.1.15,2013-04-19 04:00:00,
2013-04-19 00:10:00,65.9,57.4,29.73,SSE,167,13.0,17.0,74,0.00,,,0.00,Wunderground v.1.15,2013-04-19 04:10:00,
2013-04-19 00:20:00,66.0,57.5,29.72,SSW,196,14.0,21.0,74,0.00,,,0.00,Wunderground v.1.15,2013-04-19 04:20:00,
2013-04-19 00:30:00,66.1,57.6,29.71,SSW,197,15.0,17.0,74,0.00,,,0.00,Wunderground v.1.15,2013-04-19 04:30:00,
2013-04-19 00:40:00,66.2,57.7,29.71,SSE,150,14.0,14.0,74,0.00,,,0.00,Wunderground v.1.15,2013-04-19 04:40:00,
2013-04-19 00:50:00,66.1,57.6,29.71,SSW,196,13.0,13.0,74,0.00,,,0.00,Wunderground v.1.15,2013-04-19 04:50:00,
2013-04-19 01:00:00,65.9,57.4,29.71,SSE,163,12.0,16.0,74,0.00,,,0.00,Wunderground v.1.15,2013-04-19 05:00:00,
2013-04-19 01:10:00,66.0,57.5,29.71,SW,224,12.0,19.0,74,0.00,,,0.00,Wunderground v.1.15,2013-04-19 05:10:00,
2013-04-19 01:20:00,66.2,57.3,29.69,SSW,205,14.0,14.0,73,0.00,,,0.00,Wunderground v.1.15,2013-04-19 05:20:00,
2013-04-19 01:30:00,66.1,57.2,29.69,SSW,197,13.0,13.0,73,0.00,,,0.00,Wunderground v.1.15,2013-04-19 05:30:00,
2013-04-19 01:40:00,66.1,57.2,29.69,SSE,168,13.0,13.0,73,0.00,,,0.00,Wunderground v.1.15,2013-04-19 05:40:00,
2013-04-19 01:50:00,66.0,57.1,29.68,South,186,11.0,11.0,73,0.00,,,0.00,Wunderground v.1.15,2013-04-19 05:50:00,
2013-04-19 02:00:00,66.0,57.1,29.68,South,184,12.0,17.0,73,0.00,,,0.00,Wunderground v.1.15,2013-04-19 06:00:00,
2013-04-19 02:10:00,66.1,57.2,29.67,South,180,13.0,16.0,73,0.00,,,0.00,Wunderground v.1.15,2013-04-19 06:10:00,
2013-04-19 02:20:00,65.9,57.0,29.67,SSE,163,11.0,16.0,73,0.00,,,0.00,Wunderground v.1.15,2013-04-19 06:20:00,
2013-04-19 02:30:00,65.8,56.9,29.67,South,174,10.0,10.0,73,0.00,,,0.00,Wunderground v.1.15,2013-04-19 06:30:00,
2013-04-19 02:40:00,65.8,56.9,29.67,SSW,196,10.0,10.0,73,0.00,,,0.00,Wunderground v.1.15,2013-04-19 06:40:00,
2013-04-19 02:50:00,65.7,56.8,29.67,South,178,10.0,16.0,73,0.00,,,0.00,Wunderground v.1.15,2013-04-19 06:50:00,
2013-04-19 03:00:00,65.7,56.8,29.66,SSE,164,9.0,16.0,73,0.00,,,0.00,Wunderground v.1.15,2013-04-19 07:00:00,
2013-04-19 03:10:00,65.7,56.8,29.65,SSE,161,8.0,16.0,73,0.00,,,0.00,Wunderground v.1.15,2013-04-19 07:10:00,
2013-04-19 03:20:00,65.8,56.9,29.66,South,188,8.0,8.0,73,0.00,,,0.00,Wunderground v.1.15,2013-04-19 07:20:00,
2013-04-19 03:30:00,65.9,57.0,29.66,SSE,155,9.0,9.0,73,0.00,,,0.00,Wunderground v.1.15,2013-04-19 07:30:00,
2013-04-19 03:40:00,65.7,56.8,29.66,SSE,149,8.0,8.0,73,0.00,,,0.00,Wunderground v.1.15,2013-04-19 07:40:00,
2013-04-19 03:50:00,65.4,56.5,29.66,SSW,195,6.0,6.0,73,0.00,,,0.00,Wunderground v.1.15,2013-04-19 07:50:00,
2013-04-19 04:00:00,65.4,56.5,29.66,SSE,163,6.0,16.0,73,0.00,,,0.00,Wunderground v.1.15,2013-04-19 08:00:00,
2013-04-19 04:10:00,65.3,56.8,29.65,SSE,153,6.0,16.0,74,0.00,,,0.00,Wunderground v.1.15,2013-04-19 08:10:00,
2013-04-19 04:20:00,65.1,56.6,29.65,SSW,194,6.0,16.0,74,0.00,,,0.00,Wunderground v.1.15,2013-04-19 08:20:00,
2013-04-19 04:30:00,65.2,56.7,29.64,South,182,8.0,8.0,74,0.00,,,0.00,Wunderground v.1.15,2013-04-19 08:30:00,
2013-04-19 04:40:00,65.2,56.7,29.64,South,170,9.0,16.0,74,0.00,,,0.00,Wunderground v.1.15,2013-04-19 08:40:00,
2013-04-19 04:50:00,65.3,56.4,29.63,South,178,9.0,9.0,73,0.00,,,0.00,Wunderground v.1.15,2013-04-19 08:50:00,
2013-04-19 05:00:00,65.1,56.6,29.64,South,178,9.0,16.0,74,0.00,,,0.00,Wunderground v.1.15,2013-04-19 09:00:00,
2013-04-19 05:10:00,64.9,56.4,29.64,SSE,166,9.0,9.0,74,0.00,,,0.00,Wunderground v.1.15,2013-04-19 09:10:00,
2013-04-19 05:20:00,64.9,56.4,29.63,South,169,9.0,9.0,74,0.00,,,0.00,Wunderground v.1.15,2013-04-19 09:20:00,
2013-04-19 05:30:00,65.0,56.1,29.63,SE,142,11.0,16.0,73,0.00,,,0.00,Wunderground v.1.15,2013-04-19 09:30:00,
2013-04-19 05:40:00,64.6,56.1,29.63,South,181,10.0,10.0,74,0.00,,,0.00,Wunderground v.1.15,2013-04-19 09:40:00,
2013-04-19 05:50:00,64.4,56.3,29.63,SE,144,8.0,16.0,75,0.00,,,0.00,Wunderground v.1.15,2013-04-19 09:50:00,
2013-04-19 06:00:00,64.4,56.3,29.63,South,190,9.0,9.0,75,0.00,,,0.00,Wunderground v.1.15,2013-04-19 10:00:00,
2013-04-19 06:10:00,64.3,56.2,29.63,South,175,9.0,9.0,75,0.00,,,0.00,Wunderground v.1.15,2013-04-19 10:10:00,
2013-04-19 06:20:00,64.2,56.1,29.63,SE,130,9.0,9.0,75,0.00,,,0.00,Wunderground v.1.15,2013-04-19 10:20:00,
2013-04-19 06:30:00,64.3,56.2,29.62,SSE,157,10.0,13.0,75,0.00,,,0.00,Wunderground v.1.15,2013-04-19 10:30:00,
2013-04-19 06:40:00,64.4,56.3,29.62,SSE,154,9.0,10.0,75,0.00,,,0.00,Wunderground v.1.15,2013-04-19 10:40:00,
2013-04-19 06:50:00,64.5,56.4,29.62,South,171,9.0,9.0,75,0.00,,,0.00,Wunderground v.1.15,2013-04-19 10:50:00,
2013-04-19 07:01:00,64.7,56.6,29.61,South,186,11.0,11.0,75,0.00,,,0.00,Wunderground v.1.15,2013-04-19 11:01:00,
2013-04-19 07:11:00,64.6,56.5,29.61,SSE,163,11.0,11.0,75,0.00,,,0.00,Wunderground v.1.15,2013-04-19 11:11:00,
2013-04-19 07:21:00,64.8,56.7,29.60,SSE,163,10.0,10.0,75,0.00,,,0.00,Wunderground v.1.15,2013-04-19 11:21:00,
2013-04-19 07:31:00,64.9,56.8,29.60,SSE,151,10.0,22.0,75,0.00,,,0.00,Wunderground v.1.15,2013-04-19 11:31:00,
2013-04-19 07:41:00,65.0,56.9,29.59,South,181,10.0,22.0,75,0.00,,,0.00,Wunderground v.1.15,2013-04-19 11:41:00,
2013-04-19 07:50:00,65.2,57.1,29.59,South,178,11.0,11.0,75,0.00,,,0.00,Wunderground v.1.15,2013-04-19 11:50:00,
2013-04-19 08:00:00,65.4,57.3,29.59,South,189,9.0,22.0,75,0.00,,,0.00,Wunderground v.1.15,2013-04-19 12:00:00,
2013-04-19 08:10:00,65.7,57.2,29.59,SE,146,9.0,22.0,74,0.00,,,0.00,Wunderground v.1.15,2013-04-19 12:10:00,
2013-04-19 08:19:00,65.9,57.4,29.59,SSE,161,10.0,22.0,74,0.00,,,0.00,Wunderground v.1.15,2013-04-19 12:19:00,
2013-04-19 08:30:00,66.1,57.2,29.58,South,170,10.0,22.0,73,0.00,,,0.00,Wunderground v.1.15,2013-04-19 12:30:00,
2013-04-19 08:39:00,66.3,57.4,29.58,South,180,10.0,10.0,73,0.00,,,0.00,Wunderground v.1.15,2013-04-19 12:39:00,
2013-04-19 08:50:00,66.4,57.5,29.57,SE,139,11.0,22.0,73,0.00,,,0.00,Wunderground v.1.15,2013-04-19 12:50:00,
2013-04-19 09:00:00,66.6,57.3,29.57,SSE,147,10.0,22.0,72,0.00,,,0.00,Wunderground v.1.15,2013-04-19 13:00:00,
2013-04-19 09:10:00,67.0,58.1,29.56,SSE,156,9.0,22.0,73,0.00,,,0.00,Wunderground v.1.15,2013-04-19 13:10:00,
2013-04-19 09:20:00,67.0,57.7,29.56,SSW,213,9.0,22.0,72,0.00,,,0.00,Wunderground v.1.15,2013-04-19 13:20:00,
2013-04-19 09:30:00,66.9,57.6,29.55,SSW,202,9.0,22.0,72,0.00,,,0.00,Wunderground v.1.15,2013-04-19 13:30:00,
2013-04-19 09:40:00,67.0,57.3,29.54,SSE,166,10.0,22.0,71,0.00,,,0.00,Wunderground v.1.15,2013-04-19 13:40:00,
2013-04-19 09:50:00,67.2,57.5,29.53,SSE,159,12.0,22.0,71,0.00,,,0.00,Wunderground v.1.15,2013-04-19 13:50:00,
2013-04-19 09:59:00,67.4,57.7,29.53,South,180,13.0,13.0,71,0.00,,,0.00,Wunderground v.1.15,2013-04-19 13:59:00,
2013-04-19 10:10:00,67.5,57.8,29.52,South,173,11.0,22.0,71,0.00,,,0.00,Wunderground v.1.15,2013-04-19 14:10:00,
2013-04-19 10:19:00,67.6,57.5,29.51,South,175,12.0,12.0,70,0.00,,,0.00,Wunderground v.1.15,2013-04-19 14:19:00,
2013-04-19 10:30:00,67.9,57.4,29.51,South,175,11.0,22.0,69,0.00,,,0.00,Wunderground v.1.15,2013-04-19 14:30:00,
2013-04-19 10:39:00,68.2,57.6,29.51,SSE,163,11.0,22.0,69,0.00,,,0.00,Wunderground v.1.15,2013-04-19 14:39:00,
2013-04-19 10:50:00,68.3,57.7,29.51,SSW,192,12.0,12.0,69,0.00,,,0.00,Wunderground v.1.15,2013-04-19 14:50:00,
2013-04-19 11:00:00,68.6,57.6,29.50,SSE,154,10.0,22.0,68,0.00,,,0.00,Wunderground v.1.15,2013-04-19 15:00:00,
2013-04-19 11:10:00,68.8,57.8,29.50,South,174,11.0,22.0,68,0.00,,,0.00,Wunderground v.1.15,2013-04-19 15:10:00,
2013-04-19 11:20:00,68.8,57.8,29.50,SSE,161,12.0,22.0,68,0.00,,,0.00,Wunderground v.1.15,2013-04-19 15:20:00,
2013-04-19 11:30:00,68.8,57.8,29.49,SSW,207,12.0,12.0,68,0.00,,,0.00,Wunderground v.1.15,2013-04-19 15:30:00,
2013-04-19 11:40:00,69.0,57.6,29.48,SSE,148,13.0,13.0,67,0.00,,,0.00,Wunderground v.1.15,2013-04-19 15:40:00,
2013-04-19 11:50:00,69.3,57.9,29.48,SSW,194,13.0,13.0,67,0.00,,,0.00,Wunderground v.1.15,2013-04-19 15:50:00,
2013-04-19 11:59:00,69.3,57.5,29.48,SSE,158,13.0,22.0,66,0.00,,,0.00,Wunderground v.1.15,2013-04-19 15:59:00,
2013-04-19 12:10:00,69.6,57.7,29.46,SSE,168,14.0,22.0,66,0.00,,,0.00,Wunderground v.1.15,2013-04-19 16:10:00,
2013-04-19 12:19:00,69.6,57.7,29.44,SSE,168,15.0,15.0,66,0.00,,,0.00,Wunderground v.1.15,2013-04-19 16:19:00,
2013-04-19 12:30:00,69.9,58.0,29.44,SSW,194,16.0,16.0,66,0.00,,,0.00,Wunderground v.1.15,2013-04-19 16:30:00,
2013-04-19 12:39:00,70.4,58.1,29.45,SE,141,14.0,22.0,65,0.00,,,0.00,Wunderground v.1.15,2013-04-19 16:39:00,
2013-04-19 12:50:00,70.3,58.8,29.43,SE,131,14.0,22.0,67,0.00,,,0.00,Wunderground v.1.15,2013-04-19 16:50:00,
2013-04-19 13:00:00,70.6,58.3,29.42,South,175,14.0,14.0,65,0.00,,,0.00,Wunderground v.1.15,2013-04-19 17:00:00,
2013-04-19 13:10:00,70.3,59.2,29.44,South,169,11.0,11.0,68,0.00,,,0.00,Wunderground v.1.15,2013-04-19 17:10:00,
2013-04-19 13:20:00,69.9,59.3,29.43,South,180,9.0,9.0,69,0.00,,,0.00,Wunderground v.1.15,2013-04-19 17:20:00,
2013-04-19 13:29:00,69.3,59.5,29.43,SSE,154,10.0,22.0,71,0.00,,,0.00,Wunderground v.1.15,2013-04-19 17:29:00,
2013-04-19 13:40:00,70.3,59.6,29.43,South,189,12.0,12.0,69,0.00,,,0.00,Wunderground v.1.15,2013-04-19 17:40:00,
2013-04-19 13:50:00,70.6,59.9,29.40,SSE,148,13.0,22.0,69,0.00,,,0.01,Wunderground v.1.15,2013-04-19 17:50:00,
2013-04-19 14:00:00,70.6,60.3,29.36,SSE,148,15.0,22.0,70,0.00,,,0.01,Wunderground v.1.15,2013-04-19 18:00:00,
2013-04-19 14:10:00,71.1,61.2,29.37,South,182,17.0,17.0,71,0.00,,,0.01,Wunderground v.1.15,2013-04-19 18:10:00,
2013-04-19 14:19:00,71.6,60.9,29.38,SSE,147,15.0,22.0,69,0.00,,,0.01,Wunderground v.1.15,2013-04-19 18:19:00,
2013-04-19 14:30:00,71.0,60.3,29.38,SSW,196,12.0,22.0,69,0.00,,,0.01,Wunderground v.1.15,2013-04-19 18:30:00,
2013-04-19 14:40:00,71.2,60.5,29.36,South,188,14.0,14.0,69,0.00,,,0.01,Wunderground v.1.15,2013-04-19 18:40:00,
2013-04-19 14:50:00,71.4,60.3,29.37,South,181,13.0,13.0,68,0.00,,,0.01,Wunderground v.1.15,2013-04-19 18:50:00,
2013-04-19 15:00:00,71.7,60.6,29.36,South,171,11.0,11.0,68,0.00,,,0.01,Wunderground v.1.15,2013-04-19 19:00:00,
2013-04-19 15:09:00,72.9,61.3,29.35,South,187,11.0,22.0,67,0.00,,,0.01,Wunderground v.1.15,2013-04-19 19:09:00,
2013-04-19 15:20:00,72.7,59.8,29.37,SSW,211,11.0,11.0,64,0.00,,,0.01,Wunderground v.1.15,2013-04-19 19:20:00,
2013-04-19 15:29:00,62.8,49.6,29.40,WSW,245,11.0,22.0,62,0.00,,,0.02,Wunderground v.1.15,2013-04-19 19:29:00,
2013-04-19 15:40:00,56.2,47.7,29.42,West,280,10.0,22.0,73,0.00,,,0.02,Wunderground v.1.15,2013-04-19 19:40:00,
2013-04-19 15:50:00,53.3,45.2,29.43,WNW,290,10.0,10.0,74,0.00,,,0.02,Wunderground v.1.15,2013-04-19 19:50:00,
2013-04-19 16:00:00,51.7,44.4,29.45,WNW,290,9.0,22.0,76,0.00,,,0.02,Wunderground v.1.15,2013-04-19 20:00:00,
2013-04-19 16:10:00,50.0,43.7,29.46,West,264,8.0,22.0,79,0.00,,,0.02,Wunderground v.1.15,2013-04-19 20:10:00,
2013-04-19 16:20:00,49.6,43.7,29.48,West,263,11.0,22.0,80,0.00,,,0.02,Wunderground v.1.15,2013-04-19 20:20:00,
2013-04-19 16:30:00,49.2,43.9,29.49,SW,232,10.0,22.0,82,0.00,,,0.02,Wunderground v.1.15,2013-04-19 20:30:00,
2013-04-19 16:40:00,48.9,43.6,29.50,North,349,9.0,9.0,82,0.00,,,0.02,Wunderground v.1.15,2013-04-19 20:40:00,
2013-04-19 16:49:00,47.8,42.6,29.51,West,269,11.0,11.0,82,0.00,,,0.02,Wunderground v.1.15,2013-04-19 20:49:00,
2013-04-19 17:00:00,46.8,41.9,29.52,WNW,301,11.0,11.0,83,0.00,,,0.02,Wunderground v.1.15,2013-04-19 21:00:00,
2013-04-19 17:09:00,46.0,41.7,29.53,SW,227,9.0,9.0,85,0.00,,,0.02,Wunderground v.1.15,2013-04-19 21:09:00,
2013-04-19 17:20:00,45.3,41.1,29.52,West,281,8.0,8.0,85,0.00,,,0.02,Wunderground v.1.15,2013-04-19 21:20:00,
2013-04-19 17:29:00,45.0,40.8,29.56,WSW,244,10.0,10.0,85,0.00,,,0.02,Wunderground v.1.15,2013-04-19 21:29:00,
2013-04-19 17:40:00,44.5,40.3,29.57,SW,221,10.0,10.0,85,0.00,,,0.02,Wunderground v.1.15,2013-04-19 21:40:00,
2013-04-19 17:50:00,44.0,39.5,29.58,WSW,256,11.0,22.0,84,0.00,,,0.03,Wunderground v.1.15,2013-04-19 21:50:00,
2013-04-19 18:00:00,43.1,39.5,29.56,West,277,9.0,22.0,87,0.25,,,0.06,Wunderground v.1.15,2013-04-19 22:00:00,
2013-04-19 18:10:00,42.8,39.2,29.57,West,275,10.0,10.0,87,0.09,,,0.07,Wunderground v.1.15,2013-04-19 22:10:00,
2013-04-19 18:20:00,42.8,39.2,29.57,WSW,244,9.0,22.0,87,0.04,,,0.07,Wunderground v.1.15,2013-04-19 22:20:00,
2013-04-19 18:30:00,42.9,39.0,29.57,West,263,12.0,12.0,86,0.00,,,0.07,Wunderground v.1.15,2013-04-19 22:30:00,
2013-04-19 18:40:00,42.9,38.4,29.57,SW,220,13.0,22.0,84,0.00,,,0.07,Wunderground v.1.15,2013-04-19 22:40:00,
2013-04-19 18:49:00,43.0,38.2,29.58,West,267,15.0,22.0,83,0.00,,,0.07,Wunderground v.1.15,2013-04-19 22:49:00,
2013-04-19 19:00:00,43.0,37.9,29.58,WSW,240,11.0,11.0,82,0.00,,,0.07,Wunderground v.1.15,2013-04-19 23:00:00,
2013-04-19 19:09:00,43.1,37.3,29.60,SW,234,12.0,22.0,80,0.00,,,0.07,Wunderground v.1.15,2013-04-19 23:09:00,
2013-04-19 19:20:00,43.2,37.1,29.61,SW,228,12.0,12.0,79,0.00,,,0.07,Wunderground v.1.15,2013-04-19 23:20:00,
2013-04-19 19:29:00,43.2,37.1,29.61,WSW,253,9.0,22.0,79,0.00,,,0.07,Wunderground v.1.15,2013-04-19 23:29:00,
2013-04-19 19:40:00,43.1,36.4,29.62,West,277,10.0,10.0,77,0.00,,,0.07,Wunderground v.1.15,2013-04-19 23:40:00,
2013-04-19 19:50:00,43.2,36.5,29.62,WSW,247,9.0,22.0,77,0.00,,,0.07,Wunderground v.1.15,2013-04-19 23:50:00,
2013-04-19 20:00:00,43.4,35.7,29.64,NW,323,12.0,12.0,74,0.00,,,0.07,Wunderground v.1.15,2013-04-20 00:00:00,
2013-04-19 20:10:00,43.5,35.8,29.65,WSW,252,11.0,11.0,74,0.00,,,0.07,Wunderground v.1.15,2013-04-20 00:10:00,
2013-04-19 20:20:00,43.4,35.3,29.66,SW,225,12.0,12.0,73,0.00,,,0.07,Wunderground v.1.15,2013-04-20 00:20:00,
2013-04-19 20:30:00,43.3,35.6,29.68,WSW,253,9.0,9.0,74,0.00,,,0.07,Wunderground v.1.15,2013-04-20 00:30:00,
2013-04-19 20:40:00,43.2,35.5,29.68,WSW,256,6.0,6.0,74,0.00,,,0.07,Wunderground v.1.15,2013-04-20 00:40:00,
2013-04-19 20:49:00,43.2,35.1,29.68,WSW,238,7.0,22.0,73,0.00,,,0.07,Wunderground v.1.15,2013-04-20 00:49:00,
2013-04-19 21:00:00,43.2,35.1,29.70,WSW,240,8.0,8.0,73,0.00,,,0.07,Wunderground v.1.15,2013-04-20 01:00:00,
2013-04-19 21:09:00,43.2,34.8,29.71,West,262,7.0,22.0,72,0.00,,,0.07,Wunderground v.1.15,2013-04-20 01:09:00,
2013-04-19 21:20:00,43.2,34.8,29.71,WSW,242,6.0,6.0,72,0.00,,,0.07,Wunderground v.1.15,2013-04-20 01:20:00,
2013-04-19 21:29:00,43.3,34.9,29.72,West,260,6.0,22.0,72,0.00,,,0.07,Wunderground v.1.15,2013-04-20 01:29:00,
2013-04-19 21:40:00,43.1,34.3,29.72,West,265,7.0,22.0,71,0.00,,,0.07,Wunderground v.1.15,2013-04-20 01:40:00,
2013-04-19 21:50:00,42.9,34.1,29.72,WSW,248,8.0,8.0,71,0.00,,,0.07,Wunderground v.1.15,2013-04-20 01:50:00,
2013-04-19 22:00:00,42.7,33.9,29.72,West,259,6.0,22.0,71,0.00,,,0.07,Wunderground v.1.15,2013-04-20 02:00:00,
2013-04-19 22:10:00,42.8,33.3,29.72,West,261,7.0,22.0,69,0.00,,,0.07,Wunderground v.1.15,2013-04-20 02:10:00,
2013-04-19 22:19:00,42.7,33.2,29.73,SSW,208,6.0,6.0,69,0.00,,,0.07,Wunderground v.1.15,2013-04-20 02:19:00,
2013-04-19 22:30:00,42.8,33.3,29.74,WNW,284,6.0,6.0,69,0.00,,,0.07,Wunderground v.1.15,2013-04-20 02:30:00,
2013-04-19 22:40:00,43.0,32.8,29.74,WSW,242,8.0,8.0,67,0.00,,,0.07,Wunderground v.1.15,2013-04-20 02:40:00,
2013-04-19 22:50:00,43.2,33.0,29.74,West,271,9.0,9.0,67,0.00,,,0.07,Wunderground v.1.15,2013-04-20 02:50:00,
2013-04-19 23:00:00,43.1,32.9,29.75,SSW,202,8.0,8.0,67,0.00,,,0.07,Wunderground v.1.15,2013-04-20 03:00:00,
2013-04-19 23:10:00,43.1,32.9,29.75,WSW,257,6.0,22.0,67,0.00,,,0.07,Wunderground v.1.15,2013-04-20 03:10:00,
2013-04-19 23:20:00,43.1,32.5,29.76,WSW,237,7.0,22.0,66,0.00,,,0.07,Wunderground v.1.15,2013-04-20 03:20:00,
2013-04-19 23:30:00,43.1,32.5,29.75,West,279,7.0,7.0,66,0.00,,,0.07,Wunderground v.1.15,2013-04-20 03:30:00,
2013-04-19 23:40:00,43.1,32.1,29.75,SW,231,9.0,9.0,65,0.00,,,0.07,Wunderground v.1.15,2013-04-20 03:40:00,
2013-04-19 23:50:00,42.9,31.9,29.75,West,276,7.0,22.0,65,0.00,,,0.07,Wunderground v.1.15,2013-04-20 03:50:00,